Date,TemperatureHighF,TemperatureAvgF,TemperatureLowF,DewpointHighF,DewpointAvgF,DewpointLowF,HumidityHigh,HumidityAvg,HumidityLow,PressureMaxIn,PressureMinIn,WindSpeedMaxMPH,WindSpeedAvgMPH,GustSpeedMaxMPH,PrecipitationSumIn
2013-8-1,95.7,73.8,59.5,58.5,51.7,32.9,81,51,12,30.35,30.15,14,3,20,0.01
2013-8-2,97.3,72.6,60.1,54.8,48.1,31.6,81,46,10,30.21,30.12,14,3,21,0.00
2013-8-3,94.5,73.7,59.4,60.9,56.5,41.3,99,60,17,30.39,30.21,10,2,13,0.30
2013-8-4,95.9,81.7,63.3,60.1,51.1,39.4,70,37,21,30.28,30.24,15,4,17,0.00
2013-8-5,77.2,68.4,64.2,57.8,53.7,45.8,76,60,33,30.24,30.18,8,3,8,0.01
2013-8-6,96.4,68.6,62.4,52.3,47.3,41.2,61,48,19,30.22,30.14,17,4,20,0.01
2013-8-7,83.3,67.8,59.5,57.4,52.6,46.1,92,60,31,30.27,30.16,14,4,18,0.00
2013-8-8,81.1,67.4,57.7,59.3,54.7,46.4,99,67,38,30.30,30.17,8,2,10,0.00
2013-8-9,80.1,69.1,59.2,51.8,47.8,37.6,66,48,23,30.32,30.28,11,5,17,0.00
2013-8-10,96.4,76.2,55.2,50.3,43.6,32.5,63,36,11,30.34,30.23,13,4,19,0.08
2013-8-11,91.4,72.4,59.5,50.6,45.9,38.5,71,42,19,30.33,30.27,8,3,11,0.00
2013-8-12,90.5,64.5,55.8,57.0,50.4,41.8,97,64,19,30.40,30.26,14,4,18,0.11
2013-8-13,82.8,66.9,53.8,54.4,49.0,42.6,91,56,28,30.36,30.26,14,4,19,0.00
2013-8-14,92.5,74.7,52.3,55.9,47.2,38.7,98,44,18,30.34,30.24,6,2,10,0.01
2013-8-15,95.2,69.5,58.8,51.6,41.1,29.1,56,39,11,30.32,30.23,11,2,17,0.00
2013-8-16,100.8,83.1,63.1,47.2,37.6,26.2,48,22,10,30.31,30.24,8,3,10,0.00
2013-8-17,101.8,71.4,60.6,57.4,45.4,25.2,83,45,10,30.30,30.17,6,2,8,0.00
2013-8-18,94.3,81.0,70.3,45.7,40.1,30.9,40,25,11,30.28,30.21,15,4,23,0.00
2013-8-19,106.5,81.3,61.5,51.2,40.1,29.9,57,28,10,30.27,30.17,10,3,13,0.00
2013-8-20,99.5,88.4,78.4,41.2,35.6,29.9,24,17,10,30.20,30.13,9,2,14,0.00
2013-8-21,91.2,72.1,66.4,60.1,52.2,37.9,74,53,19,30.29,30.19,12,4,17,0.15
2013-8-22,88.5,71.4,61.3,60.6,56.4,53.6,79,61,39,30.36,30.25,11,3,16,0.01
2013-8-23,92.7,67.8,60.6,57.6,53.9,49.6,87,64,25,30.32,30.14,15,4,19,0.00
2013-8-24,96.3,77.1,66.0,56.2,51.4,43.4,69,43,20,29.98,29.91,25,5,29,0.02
2013-8-25,97.0,75.0,63.3,54.1,50.0,44.2,62,44,18,30.03,29.96,16,3,20,0.00
2013-8-26,101.1,76.9,63.7,63.4,53.2,38.5,76,47,12,30.03,29.97,21,3,26,0.01
2013-8-27,91.2,78.3,66.2,58.8,52.2,47.2,76,43,23,30.03,29.93,9,4,14,0.00
2013-8-28,96.6,79.5,67.6,53.1,50.0,44.0,56,38,20,30.01,29.94,10,3,13,0.00
2013-8-29,104.2,82.3,68.7,48.8,42.9,31.5,43,27,10,30.06,29.98,14,3,18,0.00
2013-8-30,91.6,78.7,68.0,53.1,46.6,41.5,47,33,20,30.06,29.97,18,3,21,0.00
2013-8-31,95.7,76.6,65.3,55.4,47.6,37.2,65,39,15,30.01,29.93,17,4,20,0.00